www.pogodaiklimat.ru

Погода и климат >> Архив погоды >> Россия >> Оренбургская область >> Акбулак


ПОГОДА в Акбулаке

  • Прогноз погоды в Акбулаке
  • Монитор погоды в Акбулаке

АРХИВ ПОГОДЫ в Акбулаке

Время (UTC), дата Ветер
(напр.,м/с)
 
Видим.   Явления Облачность Т
(С)
Тd
(С)
f
(%)
Тe
(С)
Тes
(С)
Комфортность P
(гПа)
Po
(гПа)
Тmin
(С)
Tmax
(С)
R
(мм)
R24
(мм)
S
(см)
21 8.09 З 1 20 км 6/3 600 м
[Sc Ac As]
+13.7 +7.9 68 +14 +14 1024.4 1006.9
00 9.09 СВ 1 20 км 3/3 600 м
[Sc]
+9.4 +6.5 82 +9 +9 1024.8 1007.0
03 9.09 С 1 20 км ясно +9.6 +7.0 84 +9 +10 1025.9 1008.1 +8.4
06 9.09 С 2 20 км ясно +18.2 +6.1 45 +19 +26 1025.6 1008.4
09 9.09 С 4 20 км 6/6 600 м
[Cu hum]
+21.8 +5.4 34 +22 +25 комфорт 1024.7 1007.7
12 9.09 С 4 20 км 8/5 600 м
[Sc Ac As]
+22.0 +6.1 36 +23 +23 комфорт 1023.7 1006.7
15 9.09 С 1 20 км 3/3 600 м
[Sc]
+19.1 +6.2 43 +21 +21 комфорт 1024.2 1007.0 +22.7
18 9.09 СВ 1 20 км 4/4 600 м
[Sc]
+13.9 +6.6 61 +14 +14 1025.0 1007.5
21 9.09 СВ 2 20 км 3/3 600 м
[Sc]
+10.8 +6.6 75 +10 +10 1025.7 1008.0
00 10.09 штиль 0 20 км ясно +6.8 +4.6 86 +6 +6 1026.1 1008.2
03 10.09 В 1 20 км 10/0
[Ac lent Ci fib]
+6.8 +4.1 83 +6 +6 1026.8 1008.8 +5.9
06 10.09 В 1 20 км 9/0
[Ac lent Ci fib]
+16.6 +5.5 48 +18 +23 1026.8 1009.4
09 10.09 С 2 20 км 8/5 600 м
[Cu Sc Ac As]
+22.7 +5.1 32 +23 +26 комфорт 1025.6 1008.6
12 10.09 С 1 20 км 6/6 600 м
[Cb calv]
+21.9 +4.2 31 +22 +24 комфорт 1025.1 1008.0
15 10.09 В 2 20 км 6/3 600 м
[Sc Ac As]
+19.1 +4.0 37 +20 +20 1026.0 1008.8 +23.6
18 10.09 В 1 20 км ясно +13.9 +4.2 52 +14 +14 1027.5 1009.9
21 10.09 В 1 20 км ясно +8.0 +4.0 76 +7 +7 1029.0 1011.1
00 11.09 В 1 20 км ясно +9.1 +5.5 78 +9 +9 1030.1 1012.2
03 11.09 В 1 20 км ясно +10.3 +6.5 77 +10 +11 1031.7 1013.8 +6.8
06 11.09 В 1 20 км ясно +18.9 +7.2 47 +21 +29 комфорт 1032.1 1014.8
09 11.09 В 2 20 км 4/4 600 м
[Cu hum]
+22.4 +5.8 34 +23 +29 комфорт 1031.4 1014.2
12 11.09 СВ 2 20 км 3/3 600 м
[Cu hum]
+23.5 +5.3 31 +23 +26 комфорт 1030.9 1013.9
15 11.09 СВ 1 20 км 3/3 600 м
[Sc]
+18.7 +5.3 41 +20 +20 1031.3 1014.0 +24.0
18 11.09 С 2 20 км ясно +12.7 +4.8 59 +12 +12 1032.3 1014.6
21 11.09 штиль 0 20 км ясно +8.5 +4.4 75 +8 +8 1032.7 1014.7
00 12.09 штиль 0 20 км ясно +6.5 +3.7 82 +6 +6 1032.9 1014.7
03 12.09 штиль 0 20 км 3/3 600 м
[Sc]
+7.2 +4.1 81 +6 +7 1033.1 1015.0 +5.2
06 12.09 Ю 1 20 км ясно +19.3 +5.8 41 +21 +29 комфорт 1032.1 1014.8
09 12.09 СЗ 2 20 км 5/5 600 м
[Sc]
+24.2 +5.4 30 +24 +29 комфорт 1030.1 1013.1
12 12.09 С 3 20 км 1/1 600 м
[Sc]
+24.0 +1.4 23 +23 +26 комфорт 1028.4 1011.4
15 12.09 С 1 20 км ясно +18.9 +2.0 32 +20 +20 1028.2 1010.9 +24.5
18 12.09 С 2 20 км ясно +11.6 +1.7 51 +11 +11 1028.7 1011.0
21 12.09 штиль 0 20 км ясно +7.9 +2.1 67 +7 +7 1028.2 1010.2
00 13.09 штиль 0 20 км ясно +5.3 +1.7 78 +4 +4 1028.0 1009.9
03 13.09 штиль 0 20 км ясно +6.6 +1.9 72 +6 +7 1028.0 1010.0 +4.6
06 13.09 ЮЗ 1 20 км ясно +19.5 +4.9 38 +21 +29 комфорт 1026.9 1009.7
09 13.09 З 2 20 км ясно +24.7 +3.0 24 +24 +33 комфорт 1024.9 1008.0
12 13.09 З 1 20 км ясно +25.5 +2.6 23 +24 +28 комфорт 1023.1 1006.3
15 13.09 С 1 20 км ясно +20.2 +3.5 33 +22 +22 комфорт 1022.7 1005.6 +25.9
18 13.09 штиль 0 20 км ясно +11.8 +2.7 54 +12 +12 1023.3 1005.7
21 13.09 СВ 1 20 км ясно +8.7 +2.1 63 +8 +8 1022.9 1005.1
00 14.09 штиль 0 20 км ясно +6.1 +1.6 73 +5 +5 1022.9 1004.9
03 14.09 штиль 0 20 км ясно +6.8 +1.9 71 +6 +7 1022.5 1004.6 +5.4
06 14.09 штиль 0 20 км ясно +19.6 +4.5 37 +20 +29 1021.4 1004.3
09 14.09 СЗ 1 20 км 1/1 600 м
[Sc]
+25.8 +3.1 23 +25 +34 комфорт 1019.7 1002.9
12 14.09 З 2 20 км 4/4 600 м
[Sc]
+25.2 +3.5 24 +24 +26 комфорт 1018.6 1001.8
15 14.09 СЗ 1 20 км 3/3 600 м
[Sc]
+18.3 +5.5 43 +20 +20 1018.6 1001.4 +26.6
18 14.09 СВ 1 20 км ясно +11.6 +2.5 54 +12 +12 1019.1 1001.5
21 14.09 штиль 0 20 км ясно +8.4 +2.1 65 +8 +8 1019.0 1001.3
00 15.09 ЮВ 1 20 км 3/0
[Ac As]
+9.0 +1.9 61 +9 +9 1018.5 1000.8
03 15.09 ЮВ 3 20 км 8/4 600 м
[Sc Ac As]
+11.1 +2.1 54 +10 +10 1018.0 1000.4 +6.9
06 15.09 ЮЗ 1 20 км 9/4 600 м
[Sc Ac As]
+20.7 +3.9 33 +22 +24 комфорт 1017.2 1000.3
09 15.09 З 3 20 км 9/4 600 м
[Sc Ac As]
+25.6 -0.2 18 +24 +26 комфорт 1015.8 999.1
12 15.09 З 4 20 км 8/3 600 м
[Sc Ac As]
+24.6 -1.0 18 +23 +24 комфорт 1014.9 998.2
15 15.09 Ю 2 20 км 9/5 600 м
[Cb calv Ac As]
+21.2 +1.9 28 +21 +21 комфорт 1013.5 996.6 +27.0
18 15.09 Ю 2 20 км 9/3 600 м
[Sc Ac As]
+19.1 +1.2 30 +20 +20 1012.4 995.4

 

Местоположение метеостанции Акбулак (Оренбургская область, Россия): широта 51.02 долгота 55.63 высота над уровнем моря 144 м.

В архиве по умолчанию представлена погода в Акбулаке за последнюю неделю. Архивные данные за месяц целиком и за предыдущие месяцы, начиная с января 2011 года, Вы можете получить, выбрав интересующий диапазон дат из раскрывающегося списка и нажав кнопку "Ввод!".


*Определитесь, кто Вы:
робот инопланетянин человек

Внимание! Время в таблицах - всемирное. Для получения местного времени необходимо прибавить поправку, которая равна 5 ч.

Смотрите также архив погоды в соседних городах и на ближайших метеорологических станциях:

Погода в Соль-Илецк (Оренбургская область, Россия) (45 км)
Погода в Мартуке (Актюбинская область, Казахстан) (70 км)
Погода в Беляевке (Оренбургская область, Россия) (71 км)
Погода в Оренбурге (Оренбургская область, Россия) (82 км)
Погода в Новоалексеевке (Костанайская область, Казахстан) (99 км)
Погода в Татарской Каргале (Оренбургская область, Россия) (103 км)
Погода в Чингирлау (Западно-Казахстанская область, Казахстан) (107 км)
Погода в Родниковке (Актюбинская область, Казахстан) (116 км)
Погода в Каралаатсае (Актюбинская область, Казахстан) (127 км)
Погода в Кувандыке (Оренбургская область, Россия) (131 км)

Пояснения к столбцам:

Ветер - указаны скорость ветра в м/с - средняя за 10 мин, порывы в срок и между сроками (в фигурных скобках) и направление, откуда дует ветер: С - северный, СВ - северо-восточный, В - восточный, ЮВ - юго-восточный, Ю - южный, ЮЗ - юго-западный, З - западный, СЗ - северо-западный.
Видимость - горизонтальная дальность видимости в метрах или километрах. При видимости от 1 до 10 км при отсутствии осадков обычно наблюдается дымка, при ухудшении видимости до 1 км и менее - туман. В сухую погоду видимость может ухудшаться дымом, пылью или мглою.
Явления - указаны атмосферные явления, наблюдавшиеся в срок или в последний час перед сроком; фигурными скобками обозначены явления, наблюдавшиеся между сроками (за 1-3 часа до срока); квадратными скобками обозначены град или гололедные отложения с указанием их диаметра в мм.
Облачность - указаны через наклонную черту общая и нижняя облачность в баллах и высота нижней границы облаков в метрах; квадратными скобками обозначены формы облаков: Ci - перистые, Cs - перисто-слоистые, Cc - перисто-кучевые, Ac - высококучевые, As - высокослоистые, Sc - слоисто-кучевые, Ns - слоисто-дождевые, Cu - кучевые, Cb - кучево-дождевые. Подробнее классификацию облаков см. в Атласе облаков (PDF).
T - Температура воздуха - температура, измеренная на высоте 2 м над землей.
Td - Температура точки росы - температура, при понижении до которой содержащийся в воздухе водяной пар достигнет насыщения.
f - Относительная влажность воздуха - влажноcть воздуха, измеренная на высоте 2 м над землей.
Te - Эффективная температура - температура, которую ощущает одетый по сезону человек в тени. Характеристика душности погоды. При расчете учитывается влияние влажности воздуха и скорости ветра на теплоощущения человека.
Tes - Эффективная температура на солнце - температура, которую ощущает человек, с поправкой на солнечный нагрев. Характеристика знойности погоды. Зависит от высоты солнца над горизонтом, облачности и скорости ветра. Ночью, в пасмурную погоду, а также при ветре 12 м/с и более поправка равна нулю.
P - Атмосферное давление - приведенное к уровню моря атмосферное давление.
Po - Атмосферное давление - измеренное на уровне метеостанции атмосферное давление.
Tmin - Минимальная температура - минимум температуры воздуха на высоте 2 м над землей.
Tmax - Максимальная температура - максимум температуры воздуха на высоте 2 м над землей.
R - Количество осадков - Количество выпавших осадков за период времени, мм. При наведении курсора мыши на число - период времени, за который выпало указанное количество осадков.
R24 - Количество осадков - Количество выпавших осадков за 24 часа, мм.
S - Снежный покров - Высота снежного покрова, см. При наведении курсора мыши на число - состояние снежного покрова и степень покрытия местности в баллах.